Starlink 11652

operational
NORAD ID: 63315 Int'l Des: 2025-057 Owner: SPXS Country: US Constellation: starlink
LEOCIRCULAR

About Starlink 11652

Description loading...

Live Position

Loading 3D Globe...

Upcoming Passes

Altitude History

Altitude vs Time

uPlot chart will show altitude changes over time

Two-Line Element Set

1 63315U 25057J 25349.54188746 .00286683 00000-0 21557-2 0 9998
2 63315 43.0007 51.7182 0001757 326.1119 33.9636 15.70904034 43977
Epoch: Dec 15, 2025 • Age: 31 hours

Current Status

Altitude 354.4 km
Velocity 7.70 km/s
Sub-Earth Point 17.13°N, 176.41°E
Launch Date Mar 18, 2025
Age 0.7 years
Type internet

Technical Details

Classification Payload
Mass 960.00 kg
Dry Mass 910.00 kg
Total Mass 960.00 kg
Length 0.30 m
Diameter 4.10 m
Span 29.00 m
Shape Box + pan
Manufacturer SPXS
Bus Type Starlink V2MD
Phase Status In Orbit
Owner/State SPXS/US

Large Constellations

Loading constellations...